www.pogodaiklimat.ru

Погода и климат >> Архив погоды >> Россия >> Тува >> Тоора-Хем


ПОГОДА в Тоора-Хем

  • Прогноз погоды в Тоора-Хем
  • Монитор погоды в Тоора-Хем
  • Климат города

АРХИВ ПОГОДЫ в Тоора-Хем

Время (UTC), дата Ветер
(напр.,м/с)
 
Видим.   Явления Облачность Т
(С)
Тd
(С)
f
(%)
Тe
(С)
Тes
(С)
Комфортность P
(гПа)
Po
(гПа)
Тmin
(С)
Tmax
(С)
R
(мм)
R24
(мм)
S
(см)
18 12.11 штиль 0 50 км ясно -29.2 -32.2 75 -29 -29 1045.2 920.3
21 12.11 С 1 50 км ясно -30.5 -33.0 79 -35 -35 опасность
обморожения
1047.7 921.5
00 13.11 С 1 50 км ясно -31.2 -33.6 79 -35 -35 опасность
обморожения
1048.7 922.4 -31.2 5
03 13.11 штиль 0 50 км в посл. час туман 8/0
[Cs]
-26.1 -28.6 79 -26 -25 1047.2 923.4 -31.7
06 13.11 В 1 50 км {туман} 10/0 2000 м
[As op]
-19.7 -22.3 80 -23 -22 1043.0 922.5
09 13.11 В 1 50 км 9/0 2000 м
[Ac lent Cc]
-16.9 -21.1 70 -20 -20 1040.5 921.6
12 13.11 С 1 50 км 6/0 2000 м
[Ac trans Ci fib]
-20.9 -23.4 80 -24 -24 1043.3 922.2 -16.7
15 13.11 штиль 0 50 км 8/0 2000 м
[Ac As]
-20.0 -21.9 85 -20 -20 1043.7 923.0
18 13.11 штиль 0 50 км 10/0 2000 м
[Ac As]
-19.2 -21.1 85 -19 -19 1043.3 923.1
21 13.11 С 1 50 км 10/0 2000 м
[Ac As]
-19.6 -20.8 90 -23 -23 1044.4 923.7
00 14.11 СЗ 1 50 км в посл. час снег 10/0 2000 м
[As op]
-18.4 -20.3 85 -21 -21 1044.6 924.8 -21.1 0.2 5
03 14.11 С 1 50 км 8/0 2000 м
[Ac As]
-18.3 -20.9 80 -21 -21 1046.5 926.4
06 14.11 В 1 50 км 8/3 1000 м
[Cu hum Ac As]
-11.3 -16.6 65 -13 -13 1042.6 925.9
09 14.11 СЗ 1 50 км 8/3 1000 м
[Sc Ac trans Cs]
-10.4 -16.7 60 -13 -12 1042.2 926.0
12 14.11 штиль 0 50 км 3/0
[Ci fib]
-18.4 -21.7 75 -18 -18 1047.0 926.9 -10.0
15 14.11 штиль 0 50 км ясно -22.9 -25.5 79 -23 -23 1050.3 927.6
18 14.11 штиль 0 50 км 4/0
[Ci fib]
-20.6 -22.5 85 -21 -21 1049.1 927.4
21 14.11 С 1 50 км 3/0
[Ci fib]
-22.6 -25.5 77 -26 -26 1048.8 926.6
00 15.11 штиль 0 50 км 8/4 1000 м
[Sc Ci fib]
-22.7 -24.6 84 -23 -23 1048.2 925.7 -23.4 4
03 15.11 штиль 0 50 км 9/3 1000 м
[Sc Ac trans Cs]
-18.5 -21.1 80 -19 -18 1045.1 925.2
06 15.11 Ю 1 50 км 6/0 2000 м
[Ac trans Ci fib]
-11.6 -16.9 65 -14 -12 1039.3 923.0
09 15.11 З 1 50 км 8/4 1000 м
[Sc Ci fib]
-9.3 -16.2 57 -11 -11 1035.9 920.9
12 15.11 Ю 2 50 км 8/4 1000 м
[Sc Ac trans Ci fib]
-12.1 -15.6 75 -17 -17 1037.5 921.0 -8.9
15 15.11 Ю 2 50 км 10/10 1000 м
[Sc]
-12.3 -15.8 75 -17 -17 1037.5 921.0
18 15.11 Ю 2 50 км 10/10 1000 м
[Sc]
-12.2 -15.7 75 -17 -17 1036.4 920.0
21 15.11 Ю 1 50 км 10/10 1000 м
[Sc]
-12.1 -14.8 80 -14 -14 1034.9 918.7
00 16.11 Ю 1 10 км 9/9 1000 м
[Sc]
-12.1 -14.8 80 -14 -14 1034.3 918.1 -13.4 4
03 16.11 СЗ 1 50 км 10/10 1000 м
[Cb cap]
-12.3 -14.3 85 -15 -15 1034.3 918.1
06 16.11 Ю 1 20 км слабый ливневой снег 10/10 1000 м
[Cb cap]
-8.8 -13.2 70 -11 -11 1032.4 917.7
09 16.11 СЗ 1 10 км слабый снег {ливн. осадки} 10/0 2000 м
[As op]
-8.1 -10.4 83 -10 -10 1031.9 917.7
12 16.11 СЗ 2 50 км {ливн. осадки, снег} 10/0 2000 м
[Ac As]
-8.2 -12.4 72 -13 -13 1033.6 919.2 -8.0 0.7
15 16.11 З 1 50 км 8/0 2000 м
[Ac As]
-11.2 -14.8 75 -13 -13 1037.2 921.1
18 16.11 штиль 0 50 км 6/0 2000 м
[Ac As]
-18.0 -19.9 85 -18 -18 1041.7 922.2
21 16.11 С 1 50 км 4/0 2000 м
[Ac trans Ci fib]
-22.9 -25.5 79 -26 -26 1044.9 922.8
00 17.11 СВ 1 50 км 4/0 1000 м
[Ac trans Ci fib]
-25.4 -27.8 80 -29 -29 1046.6 923.4 -25.6 5
03 17.11 штиль 0 50 км 6/0 2000 м
[Ac lent Ci fib]
-23.1 -25.0 84 -23 -23 1045.8 923.6 -26.1
06 17.11 В 1 50 км 8/3 1000 м
[Cu med, cong Ci sp]
-11.2 -15.6 70 -13 -12 1037.9 921.8
09 17.11 З 1 50 км 8/3 1000 м
[Cu med, cong Ac lent Ci sp]
-10.1 -17.4 55 -12 -12 1035.1 919.7
12 17.11 штиль 0 50 км 3/0
[Ci fib]
-20.7 -23.2 80 -21 -21 1039.2 918.7 -8.7
15 17.11 штиль 0 50 км 3/0
[Ci fib]
-24.9 -27.4 80 -25 -25 1039.9 917.5
18 17.11 С 1 50 км 4/0
[Ci fib]
-26.6 -29.0 80 -30 -30 1039.8 916.5
21 17.11 штиль 0 50 км 8/0 2000 м
[Ac trans Ci fib]
-25.7 -28.1 80 -26 -26 1038.0 915.3
00 18.11 штиль 0 50 км 8/3 1000 м
[Sc Ci fib]
-26.7 -29.2 79 -27 -27 1037.9 914.8 -27.0 5
03 18.11 штиль 0 50 км 8/0 2000 м
[Ac As]
-23.3 -25.8 80 -23 -23 1036.2 915.1
06 18.11 штиль 0 50 км 8/0 2000 м
[Ac As]
-16.9 -21.1 70 -17 -16 1032.2 914.2
09 18.11 СЗ 1 50 км {снег} 8/0 2000 м
[Ac lent Cc]
-15.8 -19.2 75 -18 -18 1031.7 914.2
12 18.11 штиль 0 50 км {снег} 4/0 2000 м
[Ac trans]
-22.7 -25.2 80 -23 -23 1035.9 914.9 -14.5 0.0
15 18.11 штиль 0 50 км 8/0 2000 м
[Ac trans Ci fib]
-24.5 -27.0 80 -25 -25 1037.0 915.4
18 18.11 штиль 0 10 км слабый снег 10/0 2000 м
[As op]
-23.0 -25.6 79 -23 -23 1037.6 916.3
21 18.11 штиль 0 50 км {снег} 6/0 2000 м
[Ac As]
-24.8 -27.3 80 -25 -25 1039.4 917.0
00 19.11 штиль 0 10 км слабый снег 10/0 2000 м
[As op]
-23.5 -26.0 80 -24 -24 1039.7 918.2 -25.9 0.4 5
03 19.11 штиль 0 50 км {снег} 8/0 600 м
[Ac As]
-21.1 -23.6 80 -21 -21 1040.4 919.7
06 19.11 штиль 0 50 км {снег} 10/0 2000 м
[Ac As]
-16.6 -20.0 75 -17 -16 1038.8 920.0
09 19.11 штиль 0 50 км 9/0 2000 м
[Ac As]
-15.1 -18.5 75 -15 -15 1038.4 920.6
12 19.11 С 1 50 км 8/3 1000 м
[Sc Ac As]
-19.4 -21.3 85 -22 -22 1041.5 921.6 -14.9 0.3
15 19.11 штиль 0 50 км 8/5 1000 м
[Sc Ac trans]
-18.4 -20.3 85 -18 -18 1041.1 922.0

 

Местоположение метеостанции Тоора-Хем (Тува, Россия): широта 52.47 долгота 96.10 высота над уровнем моря 920 м.

В архиве по умолчанию представлена погода в Тоора-Хем за последнюю неделю. Архивные данные за месяц целиком и за предыдущие месяцы, начиная с января 2011 года, Вы можете получить, выбрав интересующий диапазон дат из раскрывающегося списка и нажав кнопку "Ввод!".


*Определитесь, кто Вы:
робот инопланетянин человек

Внимание! Время в таблицах - всемирное. Для получения местного времени необходимо прибавить поправку, которая в Тоора-Хем равна 7 ч.

Смотрите также архив погоды в соседних городах и на ближайших метеорологических станциях:

Погода в Сарыг-Сепе (Тува, Россия) (114 км)
Погода в Кызыле (Тува, Россия) (138 км)
Погода в Туране (Тува, Россия) (153 км)
Погода в Сосновке (Тува, Россия) (183 км)
Погода в Казыре (Красноярский край, Россия) (186 км)
Погода в Алыгджере (Иркутская область, Россия) (192 км)
Погода в Оленьей Речке (Красноярский край, Россия) (197 км)
Погода в Верхней Гутаре (Иркутская область, Россия) (203 км)
Погода в Нижнеусинском (Красноярский край, Россия) (210 км)
Погода в Хову-Аксы (Тува, Россия) (217 км)

Пояснения к столбцам:

Ветер - указаны скорость ветра в м/с - средняя за 10 мин, порывы в срок и между сроками (в фигурных скобках) и направление, откуда дует ветер: С - северный, СВ - северо-восточный, В - восточный, ЮВ - юго-восточный, Ю - южный, ЮЗ - юго-западный, З - западный, СЗ - северо-западный.
Видимость - горизонтальная дальность видимости в метрах или километрах. При видимости от 1 до 10 км при отсутствии осадков обычно наблюдается дымка, при ухудшении видимости до 1 км и менее - туман. В сухую погоду видимость может ухудшаться дымом, пылью или мглою.
Явления - указаны атмосферные явления, наблюдавшиеся в срок или в последний час перед сроком; фигурными скобками обозначены явления, наблюдавшиеся между сроками (за 1-3 часа до срока); квадратными скобками обозначены град или гололедные отложения с указанием их диаметра в мм.
Облачность - указаны через наклонную черту общая и нижняя облачность в баллах и высота нижней границы облаков в метрах; квадратными скобками обозначены формы облаков: Ci - перистые, Cs - перисто-слоистые, Cc - перисто-кучевые, Ac - высококучевые, As - высокослоистые, Sc - слоисто-кучевые, Ns - слоисто-дождевые, Cu - кучевые, Cb - кучево-дождевые. Подробнее классификацию облаков см. в Атласе облаков (PDF).
T - Температура воздуха - температура, измеренная на высоте 2 м над землей.
Td - Температура точки росы - температура, при понижении до которой содержащийся в воздухе водяной пар достигнет насыщения.
f - Относительная влажность воздуха - влажноcть воздуха, измеренная на высоте 2 м над землей.
Te - Эффективная температура - температура, которую ощущает одетый по сезону человек в тени. Характеристика душности погоды. При расчете учитывается влияние влажности воздуха и скорости ветра на теплоощущения человека.
Tes - Эффективная температура на солнце - температура, которую ощущает человек, с поправкой на солнечный нагрев. Характеристика знойности погоды. Зависит от высоты солнца над горизонтом, облачности и скорости ветра. Ночью, в пасмурную погоду, а также при ветре 12 м/с и более поправка равна нулю.
P - Атмосферное давление - приведенное к уровню моря атмосферное давление.
Po - Атмосферное давление - измеренное на уровне метеостанции атмосферное давление.
Tmin - Минимальная температура - минимум температуры воздуха на высоте 2 м над землей.
Tmax - Максимальная температура - максимум температуры воздуха на высоте 2 м над землей.
R - Количество осадков - Количество выпавших осадков за период времени, мм. При наведении курсора мыши на число - период времени, за который выпало указанное количество осадков.
R24 - Количество осадков - Количество выпавших осадков за 24 часа, мм.
S - Снежный покров - Высота снежного покрова, см. При наведении курсора мыши на число - состояние снежного покрова и степень покрытия местности в баллах.